Location: Griffin Ranch
(33.6186°N, 110.6622°W)
Time: 17:16:46
(UTC-07:00)

Cosmos 1812 - Visible Passes

Search period start: 24 February 2017 00:00
Search period end: 06 March 2017 00:00
Orbit: 520 x 526 km, 82.5° (Epoch: 24 February)

Date Brightness Start Highest point End Pass type
(mag) Time Alt. Az. Time Alt. Az. Time Alt. Az.
24 Feb 6.5 06:20:28 10° ESE 06:21:52 12° E 06:23:15 10° ENE visible
24 Feb 5.8 19:30:13 10° NW 19:32:55 18° W 19:35:37 10° SW visible
25 Feb 5.6 19:17:17 10° NW 19:20:14 21° W 19:23:10 10° SW visible
26 Feb 5.4 19:04:22 10° NW 19:07:32 24° W 19:10:41 10° SW visible
27 Feb 5.2 18:51:30 10° NNW 18:54:50 28° W 18:58:09 10° SSW visible
28 Feb 4.9 18:38:39 10° NNW 18:42:08 33° W 18:45:35 10° SSW visible
04 Mar 3.2 06:11:36 10° S 06:15:25 67° E 06:19:16 10° NNE visible
05 Mar 3.5 05:58:54 10° S 06:02:41 56° E 06:06:29 10° NNE visible
